Regional Weather Roundup
Issued by NWS Little Rock, AR

Home | Current Version | Previous Version | Text Only | Print | Product List | Glossary Off
Versions: 1 2 3 4 5 6 7 8 9 10 11 12 13 14 15 16 17 18 19 20 21 22 23 24 25 26 27 28 29 30 31 32 33 34 35 36 37 38 39 40 41 42 43 44 45 46 47 48 49 50

000
ASUS44 KLZK 281805
RWRLZK

WEATHER ROUNDUP FOR ARKANSAS
NATIONAL WEATHER SERVICE LITTLE ROCK AR
1200 PM CST WED JAN 28 2015

NOTE: "FAIR" INDICATES FEW OR NO CLOUDS BELOW 12,000 FEET WITH NO
SIGNIFICANT WEATHER AND/OR OBSTRUCTIONS TO VISIBILITY.

ARZ001-003-010-029-281900-
NORTHWEST ARKANSAS

CITY           SKY/WX    TMP DP  RH WIND       PRES   REMARKS
FAYETTEVILLE   FAIR      64  39  39 S20       30.06F
6HR MIN TEMP:  46; 6HR MAX TEMP:  64;

FORT SMITH     FAIR      59  39  47 NE14      30.10F
6HR MIN TEMP:  41; 6HR MAX TEMP:  59;

HARRISON       FAIR      61  37  41 S16G24    30.09F
6HR MIN TEMP:  37; 6HR MAX TEMP:  61;

BENTONVILLE    FAIR      66  37  34 S14G22    30.05F
6HR MIN TEMP:  39; 6HR MAX TEMP:  66;

ROGERS         FAIR      68  40  35 S16G22    30.05F
6HR MIN TEMP:  40; 6HR MAX TEMP:  68;

SILOAM SPGS    FAIR     N/A N/A N/A S20G26    30.05F
6HR MIN TEMP:  45; 6HR MAX TEMP:  66;

HIGHFILL       FAIR      67  38  34 S18G28    30.04F
6HR MIN TEMP:  36; 6HR MAX TEMP:  67;

SPRINGDALE     MOSUNNY   66  39  37 S15G26    30.07F
$$

ARZ004-005-016-281900-
NORTH CENTRAL ARKANSAS

CITY           SKY/WX    TMP DP  RH WIND       PRES   REMARKS
BATESVILLE     FAIR      54  34  47 SE8       30.22F
6HR MIN TEMP:  32; 6HR MAX TEMP:  54;

FLIPPIN        FAIR      55  34  44 SE9       30.13F
6HR MIN TEMP:  34; 6HR MAX TEMP:  55;

MTN HOME       FAIR      55  32  41 S15G21    30.13F
6HR MIN TEMP:  34; 6HR MAX TEMP:  55;

$$

ARZ040-041-281900-
WEST CENTRAL ARKANSAS

CITY           SKY/WX    TMP DP  RH WIND       PRES   REMARKS
MENA           FAIR      68  43  40 SW8       30.13F
MOUNT IDA      FAIR      63  39  41 SE8       30.13F
6HR MIN TEMP:  31; 6HR MAX TEMP:  63;

$$

ARZ009-017-025-026-028-281900-
NORTHEAST ARKANSAS

CITY           SKY/WX    TMP DP  RH WIND       PRES   REMARKS
CORNING        FAIR      46  30  53 S7        30.26F
JONESBORO      FAIR      46  32  58 S9        30.27F
6HR MIN TEMP:  30; 6HR MAX TEMP:  46;

NEWPORT        FAIR      51  34  52 SE8       30.26F
6HR MIN TEMP:  31; 6HR MAX TEMP:  51; 6HR PCP: TRACE;

WALNUT RIDGE   FAIR      46  30  53 S9        30.24F
6HR MIN TEMP:  30; 6HR MAX TEMP:  46;

BLYTHEVILLE    FAIR      46  30  53 S9        30.27F
6HR MIN TEMP:  30; 6HR MAX TEMP:  46;

$$

ARZ022-023-033-042-044-281900-
CENTRAL ARKANSAS

CITY           SKY/WX    TMP DP  RH WIND       PRES   REMARKS
LITTLE ROCK    FAIR      57  34  41 SE9       30.23F
6HR MIN TEMP:  35; 6HR MAX TEMP:  57;

N LITTLE ROCK  MOSUNNY   53  38  56 SE13      30.23F
6HR MIN TEMP:  37; 6HR MAX TEMP:  54;

JACKSONVILLE   FAIR      54  37  52 VRB6      30.22F
6HR MIN TEMP:  29; 6HR MAX TEMP:  54;

SEARCY         FAIR      53  36  52 SE8       30.24F
6HR MIN TEMP:  34; 6HR MAX TEMP:  53;

HOT SPRINGS    FAIR      59  39  47 SE9       30.18F
6HR MIN TEMP:  40; 6HR MAX TEMP:  59;

RUSSELLVILLE   FAIR      54  38  54 E8        30.16F
6HR MIN TEMP:  42; 6HR MAX TEMP:  54;

CLINTON        FAIR      55  36  47 S9        30.21F
$$

ARZ036-281900-
EAST ARKANSAS

CITY           SKY/WX    TMP DP  RH WIND       PRES   REMARKS
WEST MEMPHIS   FAIR      51  33  50 S13       30.26F
6HR MIN TEMP:  33; 6HR MAX TEMP:  51;

$$

ARZ050-053-066-070-073-281900-
SOUTHWEST ARKANSAS

CITY           SKY/WX    TMP DP  RH WIND       PRES   REMARKS
ARKADELPHIA    FAIR      62  43  49 SE6       30.19F
6HR MIN TEMP:  36; 6HR MAX TEMP:  62;

CAMDEN         FAIR      64  37  36 MISG      30.21F
TEXARKANA      FAIR      70  45  40 S10       30.15F
6HR MIN TEMP:  41; 6HR MAX TEMP:  70;

EL DORADO      FAIR      65  40  39 SE9       30.20F
6HR MIN TEMP:  37; 6HR MAX TEMP:  65;

DE QUEEN       FAIR      64  43  46 CALM      30.13F
6HR MIN TEMP:  40; 6HR MAX TEMP:  65;

$$

ARZ056-057-069-281900-
SOUTHEAST ARKANSAS

CITY           SKY/WX    TMP DP  RH WIND       PRES   REMARKS
PINE BLUFF     FAIR      55  38  52 SE12      30.23F
6HR MIN TEMP:  35; 6HR MAX TEMP:  56;

STUTTGART      FAIR      54  36  50 SE13      30.24F
6HR MIN TEMP:  37; 6HR MAX TEMP:  54;

MONTICELLO     FAIR      59  34  39 SE13      30.24F
6HR MIN TEMP:  37; 6HR MAX TEMP:  59; 6HR PCP: TRACE;


$$





USA.gov is the U.S. government's official web portal to all federal, state and local government web resources and services.